Time,TemperatureF,DewpointF,PressureIn,WindDirection,WindDirectionDegrees,WindSpeedMPH,WindSpeedGustMPH,Humidity,HourlyPrecipIn,Conditions,Clouds,dailyrainin,SoftwareType,DateUTC
2012-07-21 00:02:00,89.0,52.7,29.94,NNW,328,3.1,3.1,29,0.00,,,0.00,VWS V13.01,2012-07-21 05:02:00,
2012-07-21 00:07:00,89.0,52.7,29.94,NE,36,3.1,3.6,29,0.00,,,0.00,VWS V13.01,2012-07-21 05:07:00,
2012-07-21 00:12:00,89.2,52.8,29.94,ENE,57,0.0,0.0,29,0.00,,,0.00,VWS V13.01,2012-07-21 05:12:00,
2012-07-21 00:17:00,89.4,53.0,29.94,NNE,15,2.2,3.1,29,0.00,,,0.00,VWS V13.01,2012-07-21 05:17:00,
2012-07-21 00:22:00,89.7,53.3,29.94,NNE,17,0.0,0.0,29,0.00,,,0.00,VWS V13.01,2012-07-21 05:22:00,
2012-07-21 00:27:00,89.7,53.3,29.94,NNE,31,0.0,0.0,29,0.00,,,0.00,VWS V13.01,2012-07-21 05:27:00,
2012-07-21 00:32:00,89.7,53.3,29.94,North,10,0.0,0.0,29,0.00,,,0.00,VWS V13.01,2012-07-21 05:32:00,
2012-07-21 00:37:00,89.5,53.1,29.94,NNE,21,0.0,0.0,29,0.00,,,0.00,VWS V13.01,2012-07-21 05:37:00,
2012-07-21 00:42:00,89.5,53.1,29.94,NE,36,0.0,2.7,29,0.00,,,0.00,VWS V13.01,2012-07-21 05:42:00,
2012-07-21 00:47:00,89.4,53.0,29.91,NNE,33,3.6,3.6,29,0.00,,,0.00,VWS V13.01,2012-07-21 05:47:00,
2012-07-21 00:52:00,89.4,53.9,29.91,NNE,21,0.0,4.0,30,0.00,,,0.00,VWS V13.01,2012-07-21 05:52:00,
2012-07-21 00:57:00,89.4,53.9,29.91,ESE,106,0.0,2.7,30,0.00,,,0.00,VWS V13.01,2012-07-21 05:57:00,
2012-07-21 01:02:00,89.4,53.9,29.91,NNE,29,0.0,0.0,30,0.00,,,0.00,VWS V13.01,2012-07-21 06:02:00,
2012-07-21 01:07:00,89.2,54.6,29.91,NNE,23,0.0,0.0,31,0.00,,,0.00,VWS V13.01,2012-07-21 06:07:00,
2012-07-21 01:12:00,89.0,54.5,29.91,NNE,23,0.0,0.0,31,0.00,,,0.00,VWS V13.01,2012-07-21 06:12:00,
2012-07-21 01:17:00,89.0,56.2,29.91,North,3,0.0,4.0,33,0.00,,,0.00,VWS V13.01,2012-07-21 06:17:00,
2012-07-21 01:22:00,88.8,56.9,29.91,North,4,0.0,0.0,34,0.00,,,0.00,VWS V13.01,2012-07-21 06:22:00,
2012-07-21 01:27:00,88.8,57.7,29.91,NNE,33,0.0,0.0,35,0.00,,,0.00,VWS V13.01,2012-07-21 06:27:00,
2012-07-21 01:32:00,88.8,59.2,29.91,NNE,17,0.0,0.0,37,0.00,,,0.00,VWS V13.01,2012-07-21 06:32:00,
2012-07-21 01:37:00,88.8,60.0,29.91,North,11,0.0,2.7,38,0.00,,,0.00,VWS V13.01,2012-07-21 06:37:00,
2012-07-21 01:42:00,88.8,60.7,29.91,North,1,2.7,2.7,39,0.00,,,0.00,VWS V13.01,2012-07-21 06:42:00,
2012-07-21 01:47:00,88.8,60.7,29.91,NNE,28,2.7,3.6,39,0.00,,,0.00,VWS V13.01,2012-07-21 06:47:00,
2012-07-21 01:52:00,88.8,60.7,29.91,NE,35,2.2,2.2,39,0.00,,,0.00,VWS V13.01,2012-07-21 06:52:00,
2012-07-21 01:57:00,88.6,60.5,29.91,NE,35,0.0,0.0,39,0.00,,,0.00,VWS V13.01,2012-07-21 06:57:00,
2012-07-21 02:02:00,88.5,60.4,29.91,NE,35,0.0,0.0,39,0.00,,,0.00,VWS V13.01,2012-07-21 07:02:00,
2012-07-21 02:07:00,88.3,60.9,29.91,NE,37,2.7,3.1,40,0.00,,,0.00,VWS V13.01,2012-07-21 07:07:00,
2012-07-21 02:12:00,88.3,60.9,29.91,NNE,31,3.1,3.1,40,0.00,,,0.00,VWS V13.01,2012-07-21 07:12:00,
2012-07-21 02:17:00,88.1,61.5,29.91,NNE,27,2.7,2.7,41,0.00,,,0.00,VWS V13.01,2012-07-21 07:17:00,
2012-07-21 02:22:00,88.3,62.3,29.91,NE,43,3.1,5.4,42,0.00,,,0.00,VWS V13.01,2012-07-21 07:22:00,
2012-07-21 02:27:00,88.5,62.5,29.91,North,3,3.6,3.6,42,0.00,,,0.00,VWS V13.01,2012-07-21 07:27:00,
2012-07-21 02:32:00,88.6,62.6,29.91,NNE,28,2.7,2.7,42,0.00,,,0.00,VWS V13.01,2012-07-21 07:32:00,
2012-07-21 02:37:00,88.8,62.8,29.91,NE,37,2.7,4.0,42,0.00,,,0.00,VWS V13.01,2012-07-21 07:37:00,
2012-07-21 02:42:00,89.0,62.3,29.91,North,354,4.9,4.9,41,0.00,,,0.00,VWS V13.01,2012-07-21 07:42:00,
2012-07-21 02:47:00,89.2,62.4,29.91,NE,34,4.9,5.4,41,0.00,,,0.00,VWS V13.01,2012-07-21 07:47:00,
2012-07-21 02:52:00,89.0,63.0,29.91,NE,52,2.7,3.1,42,0.00,,,0.00,VWS V13.01,2012-07-21 07:52:00,
2012-07-21 02:57:00,89.0,63.0,29.91,NE,36,4.0,4.0,42,0.00,,,0.00,VWS V13.01,2012-07-21 07:57:00,
2012-07-21 03:02:00,88.8,62.8,29.91,NE,56,3.1,3.6,42,0.00,,,0.00,VWS V13.01,2012-07-21 08:02:00,
2012-07-21 03:07:00,88.6,63.3,29.91,NNE,31,2.7,3.1,43,0.00,,,0.00,VWS V13.01,2012-07-21 08:07:00,
2012-07-21 03:12:00,88.3,63.0,29.91,NNE,15,3.1,3.1,43,0.00,,,0.00,VWS V13.01,2012-07-21 08:12:00,
2012-07-21 03:17:00,88.3,63.0,29.91,NNE,29,3.1,3.1,43,0.00,,,0.00,VWS V13.01,2012-07-21 08:17:00,
2012-07-21 03:22:00,88.1,63.5,29.91,NW,320,3.6,3.6,44,0.00,,,0.00,VWS V13.01,2012-07-21 08:22:00,
2012-07-21 03:27:00,87.9,63.3,29.91,NE,41,2.2,3.1,44,0.00,,,0.00,VWS V13.01,2012-07-21 08:27:00,
2012-07-21 03:32:00,87.7,63.1,29.91,ENE,57,0.0,0.0,44,0.00,,,0.00,VWS V13.01,2012-07-21 08:32:00,
2012-07-21 03:37:00,87.6,63.0,29.91,NNE,26,3.6,3.6,44,0.00,,,0.00,VWS V13.01,2012-07-21 08:37:00,
2012-07-21 03:42:00,87.4,63.5,29.91,NE,51,0.0,0.0,45,0.00,,,0.00,VWS V13.01,2012-07-21 08:42:00,
2012-07-21 03:47:00,87.4,63.5,29.91,NE,39,2.7,4.0,45,0.00,,,0.00,VWS V13.01,2012-07-21 08:47:00,
2012-07-21 03:52:00,87.2,63.3,29.91,NE,39,0.0,0.0,45,0.00,,,0.00,VWS V13.01,2012-07-21 08:52:00,
2012-07-21 03:57:00,86.8,63.6,29.91,ESE,106,2.2,3.6,46,0.00,,,0.00,VWS V13.01,2012-07-21 08:57:00,
2012-07-21 04:02:00,86.7,63.4,29.91,ESE,110,0.0,0.0,46,0.00,,,0.00,VWS V13.01,2012-07-21 09:02:00,
2012-07-21 04:07:00,86.3,63.7,29.91,NE,38,0.0,2.2,47,0.00,,,0.00,VWS V13.01,2012-07-21 09:07:00,
2012-07-21 04:12:00,86.1,63.5,29.91,NE,37,0.0,0.0,47,0.00,,,0.00,VWS V13.01,2012-07-21 09:12:00,
2012-07-21 04:17:00,85.9,63.4,29.94,NE,37,0.0,0.0,47,0.00,,,0.00,VWS V13.01,2012-07-21 09:17:00,
2012-07-21 04:22:00,85.8,63.8,29.94,East,98,0.0,2.7,48,0.00,,,0.00,VWS V13.01,2012-07-21 09:22:00,
2012-07-21 04:27:00,85.6,63.7,29.94,East,90,0.0,2.2,48,0.00,,,0.00,VWS V13.01,2012-07-21 09:27:00,
2012-07-21 04:32:00,85.4,64.1,29.94,ENE,72,2.7,2.7,49,0.00,,,0.00,VWS V13.01,2012-07-21 09:32:00,
2012-07-21 04:37:00,85.2,63.9,29.94,ENE,57,0.0,0.0,49,0.00,,,0.00,VWS V13.01,2012-07-21 09:37:00,
2012-07-21 04:42:00,85.0,64.3,29.94,ENE,77,3.1,3.1,50,0.00,,,0.00,VWS V13.01,2012-07-21 09:42:00,
2012-07-21 04:47:00,84.9,64.2,29.94,NE,48,0.0,0.0,50,0.00,,,0.00,VWS V13.01,2012-07-21 09:47:00,
2012-07-21 04:52:00,84.9,64.2,29.94,ENE,66,0.0,0.0,50,0.00,,,0.00,VWS V13.01,2012-07-21 09:52:00,
2012-07-21 04:57:00,84.7,64.0,29.94,NE,55,0.0,0.0,50,0.00,,,0.00,VWS V13.01,2012-07-21 09:57:00,
2012-07-21 05:02:00,84.5,63.8,29.94,NNE,18,3.1,3.6,50,0.00,,,0.00,VWS V13.01,2012-07-21 10:02:00,
2012-07-21 05:07:00,84.3,63.7,29.94,ENE,66,3.6,3.6,50,0.00,,,0.00,VWS V13.01,2012-07-21 10:07:00,
2012-07-21 05:12:00,84.3,63.7,29.94,NE,48,2.7,4.0,50,0.00,,,0.00,VWS V13.01,2012-07-21 10:12:00,
2012-07-21 05:17:00,84.1,63.5,29.97,NE,55,2.7,3.1,50,0.00,,,0.00,VWS V13.01,2012-07-21 10:17:00,
2012-07-21 05:22:00,84.0,63.3,29.97,NE,44,0.0,0.0,50,0.00,,,0.00,VWS V13.01,2012-07-21 10:22:00,
2012-07-21 05:27:00,83.8,63.2,29.97,NE,44,0.0,0.0,50,0.00,,,0.00,VWS V13.01,2012-07-21 10:27:00,
2012-07-21 05:32:00,83.4,63.4,29.97,ENE,71,0.0,0.0,51,0.00,,,0.00,VWS V13.01,2012-07-21 10:32:00,
2012-07-21 05:37:00,83.2,63.2,29.97,ENE,70,0.0,0.0,51,0.00,,,0.00,VWS V13.01,2012-07-21 10:37:00,
2012-07-21 05:42:00,83.1,63.1,29.97,NE,42,0.0,0.0,51,0.00,,,0.00,VWS V13.01,2012-07-21 10:42:00,
2012-07-21 05:47:00,82.9,63.5,29.97,NNE,20,0.0,0.0,52,0.00,,,0.00,VWS V13.01,2012-07-21 10:47:00,
2012-07-21 05:52:00,82.9,63.5,29.97,NE,37,0.0,0.0,52,0.00,,,0.00,VWS V13.01,2012-07-21 10:52:00,
2012-07-21 05:57:00,82.7,63.3,29.97,East,92,0.0,0.0,52,0.00,,,0.00,VWS V13.01,2012-07-21 10:57:00,
2012-07-21 06:02:00,82.5,63.7,29.97,NE,37,0.0,0.0,53,0.00,,,0.00,VWS V13.01,2012-07-21 11:02:00,
2012-07-21 06:07:00,82.5,63.7,29.97,NE,41,0.0,3.6,53,0.00,,,0.00,VWS V13.01,2012-07-21 11:07:00,
2012-07-21 06:12:00,82.3,63.5,29.97,NE,39,0.0,0.0,53,0.00,,,0.00,VWS V13.01,2012-07-21 11:12:00,
2012-07-21 06:17:00,82.3,63.5,29.97,NNE,26,2.2,3.1,53,0.00,,,0.00,VWS V13.01,2012-07-21 11:17:00,
2012-07-21 06:22:00,82.2,63.3,29.97,NE,37,0.0,0.0,53,0.00,,,0.00,VWS V13.01,2012-07-21 11:22:00,
2012-07-21 06:27:00,82.0,63.7,29.97,NNE,14,0.0,0.0,54,0.00,,,0.00,VWS V13.01,2012-07-21 11:27:00,
2012-07-21 06:32:00,81.8,63.5,29.97,North,352,0.0,0.0,54,0.00,,,0.00,VWS V13.01,2012-07-21 11:32:00,
2012-07-21 06:37:00,81.6,63.9,29.97,NNE,15,0.0,2.7,55,0.00,,,0.00,VWS V13.01,2012-07-21 11:37:00,
2012-07-21 06:42:00,81.6,63.4,29.97,NE,43,0.0,0.0,54,0.00,,,0.00,VWS V13.01,2012-07-21 11:42:00,
2012-07-21 06:47:00,81.4,63.2,29.97,NE,44,0.0,0.0,54,0.00,,,0.00,VWS V13.01,2012-07-21 11:47:00,
2012-07-21 06:52:00,81.4,63.2,29.97,NNE,18,2.2,2.2,54,0.00,,,0.00,VWS V13.01,2012-07-21 11:52:00,
2012-07-21 06:57:00,81.6,62.8,29.97,North,11,3.6,4.0,53,0.00,,,0.00,VWS V13.01,2012-07-21 11:57:00,
2012-07-21 07:03:00,81.8,62.5,29.97,NE,37,2.2,3.6,52,0.00,,,0.00,VWS V13.01,2012-07-21 12:03:00,
2012-07-21 07:08:00,82.2,62.8,29.97,NNE,27,3.1,3.1,52,0.00,,,0.00,VWS V13.01,2012-07-21 12:08:00,
2012-07-21 07:13:00,82.3,62.4,29.97,NNE,21,4.0,4.0,51,0.00,,,0.00,VWS V13.01,2012-07-21 12:13:00,
2012-07-21 07:18:00,82.7,62.8,29.97,North,349,3.1,3.1,51,0.00,,,0.00,VWS V13.01,2012-07-21 12:18:00,
2012-07-21 07:23:00,83.1,62.5,29.97,NNE,14,2.7,2.7,50,0.00,,,0.00,VWS V13.01,2012-07-21 12:23:00,
2012-07-21 07:29:00,83.4,62.8,29.97,NNE,27,3.1,3.6,50,0.00,,,0.00,VWS V13.01,2012-07-21 12:29:00,
2012-07-21 07:34:00,83.6,61.8,29.97,NNE,12,2.7,4.0,48,0.00,,,0.00,VWS V13.01,2012-07-21 12:34:00,
2012-07-21 07:39:00,84.1,61.8,29.97,NNE,27,6.3,6.3,47,0.00,,,0.00,VWS V13.01,2012-07-21 12:39:00,
2012-07-21 07:44:00,84.7,61.6,29.97,NNW,340,4.9,4.9,46,0.00,,,0.00,VWS V13.01,2012-07-21 12:44:00,
2012-07-21 07:49:00,85.0,61.3,29.97,NE,34,2.7,4.0,45,0.00,,,0.00,VWS V13.01,2012-07-21 12:49:00,
2012-07-21 07:54:00,85.6,61.2,29.97,North,9,3.1,3.1,44,0.00,,,0.00,VWS V13.01,2012-07-21 12:54:00,
2012-07-21 07:59:00,85.9,60.9,29.97,NNE,31,2.7,3.6,43,0.00,,,0.00,VWS V13.01,2012-07-21 12:59:00,
2012-07-21 08:04:00,86.1,60.4,29.97,NNE,33,8.1,8.1,42,0.00,,,0.00,VWS V13.01,2012-07-21 13:04:00,
2012-07-21 08:09:00,86.3,60.5,29.97,ENE,67,3.6,4.9,42,0.00,,,0.00,VWS V13.01,2012-07-21 13:09:00,
2012-07-21 08:14:00,86.8,61.0,29.97,NE,40,3.6,4.0,42,0.00,,,0.00,VWS V13.01,2012-07-21 13:14:00,
2012-07-21 08:19:00,87.2,60.7,29.97,North,350,5.4,5.4,41,0.00,,,0.00,VWS V13.01,2012-07-21 13:19:00,
2012-07-21 08:24:00,87.0,60.5,29.97,NNE,16,3.1,4.9,41,0.00,,,0.00,VWS V13.01,2012-07-21 13:24:00,
2012-07-21 08:29:00,87.6,61.0,29.97,NE,47,4.9,4.9,41,0.00,,,0.00,VWS V13.01,2012-07-21 13:29:00,
2012-07-21 08:34:00,87.7,60.4,29.97,NE,46,5.4,7.2,40,0.00,,,0.00,VWS V13.01,2012-07-21 13:34:00,
2012-07-21 08:39:00,87.7,60.4,29.97,NE,52,8.3,8.3,40,0.00,,,0.00,VWS V13.01,2012-07-21 13:39:00,
2012-07-21 08:44:00,87.9,60.6,29.97,NE,34,2.2,2.2,40,0.00,,,0.00,VWS V13.01,2012-07-21 13:44:00,
2012-07-21 08:49:00,88.8,61.4,29.97,NE,34,3.6,3.6,40,0.00,,,0.00,VWS V13.01,2012-07-21 13:49:00,
2012-07-21 08:54:00,89.2,61.0,29.97,NNW,333,3.1,3.1,39,0.00,,,0.00,VWS V13.01,2012-07-21 13:54:00,
2012-07-21 08:59:00,89.2,61.0,29.97,NNE,28,3.6,5.8,39,0.00,,,0.00,VWS V13.01,2012-07-21 13:59:00,
2012-07-21 09:04:00,88.8,61.4,29.97,ENE,57,6.3,7.2,40,0.00,,,0.00,VWS V13.01,2012-07-21 14:04:00,
2012-07-21 09:09:00,88.8,61.4,29.97,ENE,60,4.0,4.0,40,0.00,,,0.00,VWS V13.01,2012-07-21 14:09:00,
2012-07-21 09:14:00,89.0,60.8,30.00,ENE,71,5.4,5.4,39,0.00,,,0.00,VWS V13.01,2012-07-21 14:14:00,
2012-07-21 09:19:00,89.9,61.7,30.00,ESE,123,5.8,5.8,39,0.00,,,0.00,VWS V13.01,2012-07-21 14:19:00,
2012-07-21 09:24:00,90.6,62.3,30.00,North,11,3.1,5.8,39,0.00,,,0.00,VWS V13.01,2012-07-21 14:24:00,
2012-07-21 09:29:00,90.6,62.3,29.97,ENE,71,5.8,8.1,39,0.00,,,0.00,VWS V13.01,2012-07-21 14:29:00,
2012-07-21 09:34:00,90.4,62.1,29.97,East,88,4.0,4.9,39,0.00,,,0.00,VWS V13.01,2012-07-21 14:34:00,
2012-07-21 09:39:00,91.0,61.9,29.97,NNE,22,4.9,4.9,38,0.00,,,0.00,VWS V13.01,2012-07-21 14:39:00,
2012-07-21 09:44:00,91.0,61.9,29.97,East,89,4.0,4.0,38,0.00,,,0.00,VWS V13.01,2012-07-21 14:44:00,
2012-07-21 09:49:00,91.7,62.5,29.97,East,79,6.7,6.7,38,0.00,,,0.00,VWS V13.01,2012-07-21 14:49:00,
2012-07-21 09:54:00,91.7,61.8,29.97,NE,40,3.6,3.6,37,0.00,,,0.00,VWS V13.01,2012-07-21 14:54:00,
2012-07-21 09:59:00,91.5,62.3,29.97,ENE,65,0.0,0.0,38,0.00,,,0.00,VWS V13.01,2012-07-21 14:59:00,
2012-07-21 10:04:00,92.1,62.1,29.97,NE,53,4.5,5.4,37,0.00,,,0.00,VWS V13.01,2012-07-21 15:04:00,
2012-07-21 10:09:00,92.2,62.2,29.97,NE,39,2.7,2.7,37,0.00,,,0.00,VWS V13.01,2012-07-21 15:09:00,
2012-07-21 10:14:00,92.6,61.8,29.97,ENE,66,4.0,4.0,36,0.00,,,0.00,VWS V13.01,2012-07-21 15:14:00,
2012-07-21 10:19:00,93.1,61.5,29.97,NE,39,4.0,4.0,35,0.00,,,0.00,VWS V13.01,2012-07-21 15:19:00,
2012-07-21 10:24:00,93.3,61.6,29.97,SSE,152,2.2,3.1,35,0.00,,,0.00,VWS V13.01,2012-07-21 15:24:00,
2012-07-21 10:29:00,94.2,61.6,29.97,East,86,4.9,4.9,34,0.00,,,0.00,VWS V13.01,2012-07-21 15:29:00,
2012-07-21 10:34:00,94.2,60.7,29.97,ESE,123,6.3,6.3,33,0.00,,,0.00,VWS V13.01,2012-07-21 15:34:00,
2012-07-21 10:39:00,93.5,61.0,29.97,ENE,63,5.4,5.8,34,0.00,,,0.00,VWS V13.01,2012-07-21 15:39:00,
2012-07-21 10:44:00,93.5,61.0,29.97,SE,135,6.7,6.7,34,0.00,,,0.00,VWS V13.01,2012-07-21 15:44:00,
2012-07-21 10:49:00,93.3,61.6,29.97,NNE,21,5.4,8.1,35,0.00,,,0.00,VWS V13.01,2012-07-21 15:49:00,
2012-07-21 10:54:00,94.0,61.4,29.97,ESE,111,7.6,7.6,34,0.00,,,0.00,VWS V13.01,2012-07-21 15:54:00,
2012-07-21 10:59:00,94.0,61.4,29.97,East,85,8.1,8.3,34,0.00,,,0.00,VWS V13.01,2012-07-21 15:59:00,
2012-07-21 11:04:00,93.9,61.3,29.97,NE,39,5.4,5.8,34,0.00,,,0.00,VWS V13.01,2012-07-21 16:04:00,
2012-07-21 11:09:00,94.8,61.2,29.97,East,101,5.8,5.8,33,0.00,,,0.00,VWS V13.01,2012-07-21 16:09:00,
2012-07-21 11:14:00,95.5,61.0,29.97,ENE,75,8.1,8.1,32,0.00,,,0.00,VWS V13.01,2012-07-21 16:14:00,
2012-07-21 11:19:00,95.7,61.1,29.97,SE,127,8.7,8.7,32,0.00,,,0.00,VWS V13.01,2012-07-21 16:19:00,
2012-07-21 11:24:00,95.3,60.8,29.97,SSE,147,3.1,3.1,32,0.00,,,0.00,VWS V13.01,2012-07-21 16:24:00,
2012-07-21 11:29:00,95.5,61.0,29.97,ESE,115,4.0,4.5,32,0.00,,,0.00,VWS V13.01,2012-07-21 16:29:00,
2012-07-21 11:34:00,95.8,61.3,29.97,ENE,62,5.4,5.4,32,0.00,,,0.00,VWS V13.01,2012-07-21 16:34:00,
2012-07-21 11:39:00,95.8,61.3,29.97,East,99,3.1,3.1,32,0.00,,,0.00,VWS V13.01,2012-07-21 16:39:00,
2012-07-21 11:44:00,95.7,61.1,29.97,NNE,26,3.6,5.4,32,0.00,,,0.00,VWS V13.01,2012-07-21 16:44:00,
2012-07-21 11:49:00,95.3,60.8,30.00,ESE,107,7.6,7.6,32,0.00,,,0.00,VWS V13.01,2012-07-21 16:49:00,
2012-07-21 11:54:00,94.8,61.2,30.00,East,100,3.6,4.0,33,0.00,,,0.00,VWS V13.01,2012-07-21 16:54:00,
2012-07-21 11:59:00,95.3,61.7,29.97,NE,48,3.1,5.4,33,0.00,,,0.00,VWS V13.01,2012-07-21 16:59:00,
2012-07-21 12:04:00,95.8,61.3,29.97,ENE,60,3.1,3.1,32,0.00,,,0.00,VWS V13.01,2012-07-21 17:04:00,
2012-07-21 12:09:00,96.6,61.0,29.97,East,88,3.6,4.9,31,0.00,,,0.00,VWS V13.01,2012-07-21 17:09:00,
2012-07-21 12:14:00,97.3,61.6,29.97,NE,35,5.4,5.4,31,0.00,,,0.00,VWS V13.01,2012-07-21 17:14:00,
2012-07-21 12:19:00,97.8,61.2,29.97,NNE,20,4.9,5.4,30,0.00,,,0.00,VWS V13.01,2012-07-21 17:19:00,
2012-07-21 12:24:00,97.6,61.0,29.97,NNW,336,3.6,4.0,30,0.00,,,0.00,VWS V13.01,2012-07-21 17:24:00,
2012-07-21 12:29:00,97.8,61.2,29.97,NE,37,4.0,5.4,30,0.00,,,0.00,VWS V13.01,2012-07-21 17:29:00,
2012-07-21 12:34:00,97.5,60.8,29.97,ENE,71,5.4,6.3,30,0.00,,,0.00,VWS V13.01,2012-07-21 17:34:00,
2012-07-21 12:39:00,98.2,61.5,29.97,NE,49,5.8,5.8,30,0.00,,,0.00,VWS V13.01,2012-07-21 17:39:00,
2012-07-21 12:44:00,98.4,60.7,29.97,NNW,341,2.7,3.6,29,0.00,,,0.00,VWS V13.01,2012-07-21 17:44:00,
2012-07-21 12:49:00,98.5,60.8,29.97,ENE,70,4.9,4.9,29,0.00,,,0.00,VWS V13.01,2012-07-21 17:49:00,
2012-07-21 12:54:00,98.5,60.8,29.97,ENE,62,2.7,2.7,29,0.00,,,0.00,VWS V13.01,2012-07-21 17:54:00,
2012-07-21 12:59:00,98.5,59.8,29.97,North,358,3.1,3.1,28,0.00,,,0.00,VWS V13.01,2012-07-21 17:59:00,
2012-07-21 13:04:00,98.4,59.7,29.97,South,185,5.4,5.4,28,0.00,,,0.00,VWS V13.01,2012-07-21 18:04:00,
2012-07-21 13:09:00,99.4,59.6,29.97,ENE,74,2.2,2.7,27,0.00,,,0.00,VWS V13.01,2012-07-21 18:09:00,
2012-07-21 13:14:00,100.5,60.5,29.97,NE,41,5.8,5.8,27,0.00,,,0.00,VWS V13.01,2012-07-21 18:14:00,
2012-07-21 13:19:00,100.5,60.5,29.97,NE,45,5.4,5.4,27,0.00,,,0.00,VWS V13.01,2012-07-21 18:19:00,
2012-07-21 13:24:00,100.9,59.7,29.97,NE,50,5.8,5.8,26,0.00,,,0.00,VWS V13.01,2012-07-21 18:24:00,
2012-07-21 13:29:00,101.1,59.9,29.97,North,352,3.6,3.6,26,0.00,,,0.00,VWS V13.01,2012-07-21 18:29:00,
2012-07-21 13:34:00,101.8,59.4,29.97,SSE,150,5.4,6.3,25,0.00,,,0.00,VWS V13.01,2012-07-21 18:34:00,
2012-07-21 13:39:00,101.8,59.4,29.97,NE,48,5.8,5.8,25,0.00,,,0.00,VWS V13.01,2012-07-21 18:39:00,
2012-07-21 13:44:00,102.3,61.0,29.97,North,357,8.3,8.7,26,0.00,,,0.00,VWS V13.01,2012-07-21 18:44:00,
2012-07-21 13:49:00,102.0,59.5,29.97,NNE,28,3.1,3.1,25,0.00,,,0.00,VWS V13.01,2012-07-21 18:49:00,
2012-07-21 13:54:00,101.8,59.4,29.97,NE,42,4.0,4.0,25,0.00,,,0.00,VWS V13.01,2012-07-21 18:54:00,
2012-07-21 13:59:00,102.1,59.7,29.97,ENE,78,5.4,5.4,25,0.00,,,0.00,VWS V13.01,2012-07-21 18:59:00,
2012-07-21 14:04:00,101.4,60.2,29.97,North,8,2.2,2.2,26,0.00,,,0.00,VWS V13.01,2012-07-21 19:04:00,
2012-07-21 14:09:00,102.0,59.5,29.97,NW,314,6.3,6.3,25,0.00,,,0.00,VWS V13.01,2012-07-21 19:09:00,
2012-07-21 14:14:00,102.1,59.7,29.97,NNE,20,2.7,3.6,25,0.00,,,0.00,VWS V13.01,2012-07-21 19:14:00,
2012-07-21 14:19:00,103.0,60.5,29.97,NE,45,4.0,4.0,25,0.00,,,0.00,VWS V13.01,2012-07-21 19:19:00,
2012-07-21 14:24:00,103.6,60.9,29.97,ESE,122,3.6,4.0,25,0.00,,,0.00,VWS V13.01,2012-07-21 19:24:00,
2012-07-21 14:29:00,103.2,60.6,29.94,ENE,57,2.2,3.1,25,0.00,,,0.00,VWS V13.01,2012-07-21 19:29:00,
2012-07-21 14:34:00,103.4,57.2,29.94,ENE,73,5.4,5.8,22,0.00,,,0.00,VWS V13.01,2012-07-21 19:34:00,
2012-07-21 14:39:00,103.6,57.3,29.94,ESE,111,3.1,3.1,22,0.00,,,0.00,VWS V13.01,2012-07-21 19:39:00,
2012-07-21 14:44:00,104.3,57.9,29.94,East,101,6.3,6.3,22,0.00,,,0.00,VWS V13.01,2012-07-21 19:44:00,
2012-07-21 14:49:00,103.8,57.5,29.94,North,4,2.2,2.7,22,0.00,,,0.00,VWS V13.01,2012-07-21 19:49:00,
2012-07-21 14:54:00,104.3,57.9,29.94,ESE,118,3.6,3.6,22,0.00,,,0.00,VWS V13.01,2012-07-21 19:54:00,
2012-07-21 14:59:00,103.8,57.5,29.94,North,356,4.0,5.8,22,0.00,,,0.00,VWS V13.01,2012-07-21 19:59:00,
2012-07-21 15:04:00,104.3,57.9,29.94,ESE,102,5.8,5.8,22,0.00,,,0.00,VWS V13.01,2012-07-21 20:04:00,
2012-07-21 15:09:00,103.6,57.3,29.94,NE,41,7.6,7.6,22,0.00,,,0.00,VWS V13.01,2012-07-21 20:09:00,
2012-07-21 15:14:00,103.8,57.5,29.94,NE,54,3.1,12.3,22,0.00,,,0.00,VWS V13.01,2012-07-21 20:14:00,
2012-07-21 15:19:00,103.6,57.3,29.94,East,79,3.1,5.4,22,0.00,,,0.00,VWS V13.01,2012-07-21 20:19:00,
2012-07-21 15:24:00,103.4,57.2,29.94,ENE,69,4.9,7.6,22,0.00,,,0.00,VWS V13.01,2012-07-21 20:24:00,
2012-07-21 15:29:00,103.4,57.2,29.94,East,85,7.6,7.6,22,0.00,,,0.00,VWS V13.01,2012-07-21 20:29:00,
2012-07-21 15:34:00,104.5,58.1,29.94,South,170,5.8,5.8,22,0.00,,,0.00,VWS V13.01,2012-07-21 20:34:00,
2012-07-21 15:39:00,104.1,57.8,29.94,SSW,192,5.8,5.8,22,0.00,,,0.00,VWS V13.01,2012-07-21 20:39:00,
2012-07-21 15:44:00,103.6,57.3,29.91,ESE,119,3.6,4.9,22,0.00,,,0.00,VWS V13.01,2012-07-21 20:44:00,
2012-07-21 15:49:00,103.0,58.1,29.91,ESE,117,4.9,6.3,23,0.00,,,0.00,VWS V13.01,2012-07-21 20:49:00,
2012-07-21 15:54:00,102.7,57.8,29.91,ENE,66,0.0,3.6,23,0.00,,,0.00,VWS V13.01,2012-07-21 20:54:00,
2012-07-21 15:59:00,102.9,58.0,29.91,NE,50,5.8,7.6,23,0.00,,,0.00,VWS V13.01,2012-07-21 20:59:00,
2012-07-21 16:04:00,103.6,57.3,29.91,East,80,2.7,3.6,22,0.00,,,0.00,VWS V13.01,2012-07-21 21:04:00,
2012-07-21 16:09:00,103.6,57.3,29.91,ESE,102,0.0,0.0,22,0.00,,,0.00,VWS V13.01,2012-07-21 21:09:00,
2012-07-21 16:14:00,103.6,57.3,29.91,ESE,105,5.8,7.2,22,0.00,,,0.00,VWS V13.01,2012-07-21 21:14:00,
2012-07-21 16:19:00,103.0,58.1,29.91,ENE,72,3.1,3.1,23,0.00,,,0.00,VWS V13.01,2012-07-21 21:19:00,
2012-07-21 16:24:00,103.2,58.3,29.91,NNW,336,3.6,3.6,23,0.00,,,0.00,VWS V13.01,2012-07-21 21:24:00,
2012-07-21 16:29:00,103.6,57.3,29.91,NE,37,2.7,6.3,22,0.00,,,0.00,VWS V13.01,2012-07-21 21:29:00,
2012-07-21 16:34:00,103.4,57.2,29.91,WNW,295,2.7,4.0,22,0.00,,,0.00,VWS V13.01,2012-07-21 21:34:00,
2012-07-21 16:39:00,103.9,57.6,29.91,East,87,2.7,5.4,22,0.00,,,0.00,VWS V13.01,2012-07-21 21:39:00,
2012-07-21 16:44:00,104.7,58.2,29.91,ENE,65,3.6,6.3,22,0.00,,,0.00,VWS V13.01,2012-07-21 21:44:00,
2012-07-21 16:49:00,104.5,58.1,29.91,NE,47,3.6,6.3,22,0.00,,,0.00,VWS V13.01,2012-07-21 21:49:00,
2012-07-21 16:54:00,104.8,58.4,29.91,NE,41,6.3,6.3,22,0.00,,,0.00,VWS V13.01,2012-07-21 21:54:00,
2012-07-21 16:59:00,105.0,58.5,29.91,WNW,300,2.7,4.0,22,0.00,,,0.00,VWS V13.01,2012-07-21 21:59:00,
2012-07-21 17:04:00,105.2,58.7,29.91,ESE,111,8.7,10.1,22,0.00,,,0.00,VWS V13.01,2012-07-21 22:04:00,
2012-07-21 17:09:00,104.5,58.1,29.91,North,6,4.0,5.8,22,0.00,,,0.00,VWS V13.01,2012-07-21 22:09:00,
2012-07-21 17:14:00,103.4,57.2,29.91,NNE,28,5.4,5.4,22,0.00,,,0.00,VWS V13.01,2012-07-21 22:14:00,
2012-07-21 17:19:00,103.6,57.3,29.91,NW,322,6.3,8.1,22,0.00,,,0.00,VWS V13.01,2012-07-21 22:19:00,
2012-07-21 17:23:00,103.0,58.1,29.91,NE,56,5.8,6.7,23,0.00,,,0.00,VWS V13.01,2012-07-21 22:23:00,
2012-07-21 17:28:00,102.9,58.0,29.91,East,79,4.0,5.4,23,0.00,,,0.00,VWS V13.01,2012-07-21 22:28:00,
2012-07-21 17:33:00,103.6,57.3,29.91,NNE,23,3.6,3.6,22,0.00,,,0.00,VWS V13.01,2012-07-21 22:33:00,
2012-07-21 17:39:00,104.3,57.9,29.91,NNE,33,2.7,5.4,22,0.00,,,0.00,VWS V13.01,2012-07-21 22:39:00,
2012-07-21 17:44:00,104.3,57.9,29.91,NE,44,3.6,8.1,22,0.00,,,0.00,VWS V13.01,2012-07-21 22:44:00,
2012-07-21 17:48:00,104.7,58.2,29.91,NNE,13,2.7,4.0,22,0.00,,,0.00,VWS V13.01,2012-07-21 22:48:00,
2012-07-21 17:53:00,103.6,57.3,29.91,North,5,3.1,3.1,22,0.00,,,0.00,VWS V13.01,2012-07-21 22:53:00,
2012-07-21 17:58:00,103.4,57.2,29.91,NNE,17,5.8,5.8,22,0.00,,,0.00,VWS V13.01,2012-07-21 22:58:00,
2012-07-21 18:03:00,103.4,57.2,29.91,NNE,25,2.7,4.0,22,0.00,,,0.00,VWS V13.01,2012-07-21 23:03:00,
2012-07-21 18:08:00,103.0,58.1,29.91,NNE,27,5.8,6.3,23,0.00,,,0.00,VWS V13.01,2012-07-21 23:08:00,
2012-07-21 18:13:00,102.7,57.8,29.91,NNE,29,7.6,10.5,23,0.00,,,0.00,VWS V13.01,2012-07-21 23:13:00,
2012-07-21 18:18:00,102.5,57.7,29.91,NE,50,7.6,8.7,23,0.00,,,0.00,VWS V13.01,2012-07-21 23:18:00,
2012-07-21 18:23:00,102.5,57.7,29.91,ENE,61,3.1,5.4,23,0.00,,,0.00,VWS V13.01,2012-07-21 23:23:00,
2012-07-21 18:28:00,102.9,58.0,29.91,NW,316,4.0,4.0,23,0.00,,,0.00,VWS V13.01,2012-07-21 23:28:00,
2012-07-21 18:33:00,103.2,58.3,29.91,NNE,15,7.2,7.2,23,0.00,,,0.00,VWS V13.01,2012-07-21 23:33:00,
2012-07-21 18:38:00,103.0,58.1,29.91,NNE,20,2.2,4.9,23,0.00,,,0.00,VWS V13.01,2012-07-21 23:38:00,
2012-07-21 18:43:00,102.3,57.5,29.91,North,5,3.1,4.0,23,0.00,,,0.00,VWS V13.01,2012-07-21 23:43:00,
2012-07-21 18:48:00,102.5,57.7,29.91,NNE,26,3.1,3.1,23,0.00,,,0.00,VWS V13.01,2012-07-21 23:48:00,
2012-07-21 18:53:00,102.3,57.5,29.91,NW,322,4.9,4.9,23,0.00,,,0.00,VWS V13.01,2012-07-21 23:53:00,
2012-07-21 18:58:00,102.0,57.2,29.91,ENE,74,3.6,7.2,23,0.00,,,0.00,VWS V13.01,2012-07-21 23:58:00,
2012-07-21 19:03:00,101.4,56.8,29.91,NNW,337,8.7,8.7,23,0.00,,,0.00,VWS V13.01,2012-07-22 00:03:00,
2012-07-21 19:08:00,100.9,56.3,29.91,North,351,2.7,6.3,23,0.00,,,0.00,VWS V13.01,2012-07-22 00:08:00,
2012-07-21 19:13:00,100.7,56.2,29.91,NE,36,3.6,5.8,23,0.00,,,0.00,VWS V13.01,2012-07-22 00:13:00,
2012-07-21 19:18:00,100.5,56.0,29.91,NNE,29,5.4,5.8,23,0.00,,,0.00,VWS V13.01,2012-07-22 00:18:00,
2012-07-21 19:23:00,100.3,55.9,29.91,North,350,3.6,5.8,23,0.00,,,0.00,VWS V13.01,2012-07-22 00:23:00,
2012-07-21 19:28:00,100.2,55.7,29.91,NE,45,7.6,7.6,23,0.00,,,0.00,VWS V13.01,2012-07-22 00:28:00,
2012-07-21 19:33:00,100.0,55.6,29.91,NNE,23,5.8,6.3,23,0.00,,,0.00,VWS V13.01,2012-07-22 00:33:00,
2012-07-21 19:38:00,99.6,56.5,29.91,NNE,17,5.8,5.8,24,0.00,,,0.00,VWS V13.01,2012-07-22 00:38:00,
2012-07-21 19:43:00,99.4,56.3,29.91,North,349,3.1,5.8,24,0.00,,,0.00,VWS V13.01,2012-07-22 00:43:00,
2012-07-21 19:48:00,99.1,56.0,29.91,North,3,5.8,8.7,24,0.00,,,0.00,VWS V13.01,2012-07-22 00:48:00,
2012-07-21 19:53:00,98.9,55.8,29.91,NNE,28,3.1,4.9,24,0.00,,,0.00,VWS V13.01,2012-07-22 00:53:00,
2012-07-21 19:58:00,98.5,55.5,29.91,NE,50,4.5,8.1,24,0.00,,,0.00,VWS V13.01,2012-07-22 00:58:00,
2012-07-21 20:03:00,98.4,55.4,29.91,NE,54,3.6,3.6,24,0.00,,,0.00,VWS V13.01,2012-07-22 01:03:00,
2012-07-21 20:08:00,98.0,55.1,29.91,NE,52,5.4,5.4,24,0.00,,,0.00,VWS V13.01,2012-07-22 01:08:00,
2012-07-21 20:13:00,97.6,54.8,29.91,ENE,72,3.6,3.6,24,0.00,,,0.00,VWS V13.01,2012-07-22 01:13:00,
2012-07-21 20:18:00,97.3,54.5,29.91,NNE,20,3.1,3.1,24,0.00,,,0.00,VWS V13.01,2012-07-22 01:18:00,
2012-07-21 20:23:00,96.9,54.2,29.91,NE,46,4.9,6.3,24,0.00,,,0.00,VWS V13.01,2012-07-22 01:23:00,
2012-07-21 20:28:00,96.7,54.0,29.91,NNE,31,4.0,4.0,24,0.00,,,0.00,VWS V13.01,2012-07-22 01:28:00,
2012-07-21 20:33:00,96.4,53.7,29.91,NE,46,2.7,3.6,24,0.00,,,0.00,VWS V13.01,2012-07-22 01:33:00,
2012-07-21 20:38:00,96.0,53.4,29.91,NE,37,2.7,3.6,24,0.00,,,0.00,VWS V13.01,2012-07-22 01:38:00,
2012-07-21 20:43:00,95.7,53.1,29.91,ENE,74,3.1,3.1,24,0.00,,,0.00,VWS V13.01,2012-07-22 01:43:00,
2012-07-21 20:48:00,95.3,52.8,29.94,NE,44,2.7,4.0,24,0.00,,,0.00,VWS V13.01,2012-07-22 01:48:00,
2012-07-21 20:53:00,95.1,52.7,29.94,NE,34,2.2,2.7,24,0.00,,,0.00,VWS V13.01,2012-07-22 01:53:00,
2012-07-21 20:58:00,94.8,52.4,29.94,NE,39,3.6,3.6,24,0.00,,,0.00,VWS V13.01,2012-07-22 01:58:00,
2012-07-21 21:03:00,94.4,52.1,29.91,North,8,4.0,4.0,24,0.00,,,0.00,VWS V13.01,2012-07-22 02:03:00,
2012-07-21 21:08:00,94.2,53.0,29.91,ENE,60,4.9,5.4,25,0.00,,,0.00,VWS V13.01,2012-07-22 02:08:00,
2012-07-21 21:13:00,94.0,52.9,29.91,NE,53,0.0,0.0,25,0.00,,,0.00,VWS V13.01,2012-07-22 02:13:00,
2012-07-21 21:18:00,93.7,52.6,29.94,NE,51,0.0,0.0,25,0.00,,,0.00,VWS V13.01,2012-07-22 02:18:00,
2012-07-21 21:23:00,93.3,52.3,29.94,ENE,77,2.2,3.1,25,0.00,,,0.00,VWS V13.01,2012-07-22 02:23:00,
2012-07-21 21:28:00,93.0,52.0,29.94,ENE,69,0.0,2.2,25,0.00,,,0.00,VWS V13.01,2012-07-22 02:28:00,
2012-07-21 21:33:00,92.8,51.8,29.94,NE,56,2.2,2.2,25,0.00,,,0.00,VWS V13.01,2012-07-22 02:33:00,
2012-07-21 21:38:00,92.6,51.7,29.94,ENE,69,0.0,0.0,25,0.00,,,0.00,VWS V13.01,2012-07-22 02:38:00,
2012-07-21 21:43:00,92.2,54.5,29.94,ENE,69,0.0,0.0,28,0.00,,,0.00,VWS V13.01,2012-07-22 02:43:00,
2012-07-21 21:48:00,91.9,54.2,29.97,ENE,69,0.0,0.0,28,0.00,,,0.00,VWS V13.01,2012-07-22 02:48:00,
2012-07-21 21:53:00,91.7,54.0,29.97,ENE,59,0.0,0.0,28,0.00,,,0.00,VWS V13.01,2012-07-22 02:53:00,
2012-07-21 21:58:00,91.3,53.7,29.97,NNE,29,4.9,4.9,28,0.00,,,0.00,VWS V13.01,2012-07-22 02:58:00,
2012-07-21 22:03:00,91.5,53.8,29.97,NE,47,2.7,3.6,28,0.00,,,0.00,VWS V13.01,2012-07-22 03:03:00,
2012-07-21 22:08:00,91.3,53.7,29.97,ENE,58,0.0,0.0,28,0.00,,,0.00,VWS V13.01,2012-07-22 03:08:00,
2012-07-21 22:13:00,91.2,53.5,29.97,ENE,64,0.0,0.0,28,0.00,,,0.00,VWS V13.01,2012-07-22 03:13:00,
2012-07-21 22:18:00,90.8,53.2,29.97,NNE,22,3.1,3.1,28,0.00,,,0.00,VWS V13.01,2012-07-22 03:18:00,
2012-07-21 22:23:00,90.6,54.0,29.97,NE,41,0.0,0.0,29,0.00,,,0.00,VWS V13.01,2012-07-22 03:23:00,
2012-07-21 22:28:00,90.6,54.0,29.97,NE,56,2.7,3.1,29,0.00,,,0.00,VWS V13.01,2012-07-22 03:28:00,
2012-07-21 22:33:00,90.4,53.9,29.97,ENE,72,0.0,0.0,29,0.00,,,0.00,VWS V13.01,2012-07-22 03:33:00,
2012-07-21 22:38:00,90.3,53.7,29.97,East,89,0.0,2.2,29,0.00,,,0.00,VWS V13.01,2012-07-22 03:38:00,
2012-07-21 22:43:00,90.1,53.6,29.97,NE,45,3.1,3.1,29,0.00,,,0.00,VWS V13.01,2012-07-22 03:43:00,
2012-07-21 22:48:00,90.1,53.6,30.00,ENE,70,2.2,4.0,29,0.00,,,0.00,VWS V13.01,2012-07-22 03:48:00,
2012-07-21 22:53:00,89.9,53.4,30.00,East,88,0.0,0.0,29,0.00,,,0.00,VWS V13.01,2012-07-22 03:53:00,
2012-07-21 22:58:00,89.7,54.2,30.00,NE,37,0.0,0.0,30,0.00,,,0.00,VWS V13.01,2012-07-22 03:58:00,
2012-07-21 23:00:00,89.7,54.2,30.00,NE,47,2.7,2.7,30,0.00,,,0.00,VWS V13.01,2012-07-22 04:00:00,
2012-07-21 23:05:00,89.5,54.0,30.00,NNE,29,0.0,0.0,30,0.00,,,0.00,VWS V13.01,2012-07-22 04:05:00,
2012-07-21 23:10:00,89.4,53.9,30.00,NE,41,2.7,3.6,30,0.00,,,0.00,VWS V13.01,2012-07-22 04:10:00,
2012-07-21 23:15:00,89.2,53.7,30.00,NE,37,2.7,3.1,30,0.00,,,0.00,VWS V13.01,2012-07-22 04:15:00,
2012-07-21 23:20:00,89.0,54.5,30.00,ESE,122,3.6,3.6,31,0.00,,,0.00,VWS V13.01,2012-07-22 04:20:00,
2012-07-21 23:25:00,88.8,54.3,30.00,ENE,78,2.2,3.1,31,0.00,,,0.00,VWS V13.01,2012-07-22 04:25:00,
2012-07-21 23:30:00,88.8,54.3,30.00,NE,41,0.0,0.0,31,0.00,,,0.00,VWS V13.01,2012-07-22 04:30:00,
2012-07-21 23:35:00,88.6,55.0,30.00,East,81,0.0,0.0,32,0.00,,,0.00,VWS V13.01,2012-07-22 04:35:00,
2012-07-21 23:40:00,88.5,54.9,30.00,NE,34,0.0,0.0,32,0.00,,,0.00,VWS V13.01,2012-07-22 04:40:00,
2012-07-21 23:45:00,88.1,55.4,30.00,NNE,19,0.0,0.0,33,0.00,,,0.00,VWS V13.01,2012-07-22 04:45:00,
2012-07-21 23:50:00,87.9,55.2,30.00,NNE,24,0.0,0.0,33,0.00,,,0.00,VWS V13.01,2012-07-22 04:50:00,
2012-07-21 23:55:00,87.7,55.9,30.00,NNE,24,0.0,0.0,34,0.00,,,0.00,VWS V13.01,2012-07-22 04:55:00,